www.pogodaiklimat.ru

Погода и климат >> Архив погоды >> Парагвай >> Грал Бругуез


ПОГОДА в Грал Бругуез

  • Прогноз погоды в Грал Бругуез
  • Монитор погоды в Грал Бругуез

АРХИВ ПОГОДЫ в Грал Бругуез

Время (UTC), дата Ветер
(напр.,м/с)
 
Видим.   Явления Облачность Т
(С)
Тd
(С)
f
(%)
Тe
(С)
Тes
(С)
Комфортность P
(гПа)
Po
(гПа)
Тmin
(С)
Tmax
(С)
R
(мм)
R24
(мм)
S
(см)
12 14.05 Ю 2 20 км ясно +15.0 +13.5 91 +15 +17 1023.7 1013.0 +13.6
15 14.05 Ю 6 20 км ясно +18.8 +11.9 64 +19 +23 1023.9 1013.3
18 14.05 Ю 6 20 км ясно +20.8 +9.7 49 +22 +25 комфорт 1021.7 1011.2
21 14.05 Ю 5 20 км ясно +20.4 +12.4 60 +22 +22 комфорт 1020.8 1010.2
00 15.05 Ю 2 20 км ясно +17.8 +14.5 81 +18 +18 1021.3 1010.7 +21.0
12 15.05 Ю 3 20 км 4/0
[Ci fib]
+15.2 +14.7 97 +14 +16 1021.5 1010.8 +14.6
15 15.05 Ю 5 20 км 4/4 1200 м
[Cu hum]
+20.4 +16.1 76 +23 +26 комфорт 1021.2 1010.6
18 15.05 Ю 3 20 км 3/3 1200 м
[Cu hum]
+22.4 +13.9 59 +26 +30 жарко 1019.2 1008.8
21 15.05 Ю 3 20 км 3/3 1200 м
[Cu hum]
+22.6 +14.5 60 +26 +26 жарко 1019.2 1007.8
00 16.05 штиль 0 20 км 5/0
[Ac trans]
+19.0 +15.8 82 +20 +20 1018.6 1008.1 +22.8
12 16.05 Ю 4 20 км 3/0 2000 м
[Ac cast]
+17.0 +16.7 98 +16 +17 1018.8 1008.2 +15.5
15 16.05 ЮВ 4 20 км 4/1 1200 м
[Cu hum Ac trans]
+22.2 +16.7 71 +27 +31 душно 1019.0 1008.6
18 16.05 В 4 20 км 5/5 1200 м
[Cu med, cong]
+24.6 +17.3 64 +29 +31 душно 1016.3 1006.0
21 16.05 ЮВ 4 20 км 5/4 1000 м
[Cu med, cong Ac und]
+24.6 +17.4 64 +29 +29 душно 1015.2 1004.9
00 17.05 ЮВ 2 20 км 1/1 900 м
[Sc diur, vesp]
+21.0 +18.0 83 +26 +26 душно 1015.7 1005.2 +25.5
12 17.05 Ю 1 20 км 5/0 2000 м
[Ac As]
+18.2 +17.6 96 +20 +21 1015.0 1004.5 +17.0
15 17.05 В 5 20 км 3/3 1200 м
[Cu hum]
+23.6 +17.8 70 +28 +31 душно 1014.4 1004.1
18 17.05 В 4 20 км 5/5 1200 м
[Cu hum]
+25.8 +18.2 63 +30 +33 душно 1011.7 1001.5
21 17.05 СВ 1 20 км 3/3 1200 м
[Cu hum]
+25.8 +18.5 64 +31 +31 очень
душно
1010.3 1000.1
00 18.05 штиль 0 20 км ясно +22.0 +21.8 99 +29 +29 очень
душно
1010.7 1000.3 +26.6
09 18.05 штиль 0 20 км ясно +18.4 +17.7 96 +19 +19 1010.7 1000.2
12 18.05 В 4 20 км ясно +20.2 +18.5 90 +24 +25 комфорт 1011.6 1001.2 +18.2
15 18.05 СВ 7 20 км 4/1 1200 м
[Cu hum Ac trans]
+25.4 +20.1 72 +31 +33 очень
душно
1012.1 1001.6
18 18.05 СВ 5 20 км 8/4 1200 м
[Cu hum Ac und]
+27.4 +19.3 61 +33 +34 очень
душно
1010.9 1000.7
21 18.05 ЮВ 2 20 км 9/0 2000 м
[Ac und]
+25.8 +21.5 77 +33 +33 очень
душно
1010.8 1000.6
00 19.05 Ю 1 20 км 9/0 2000 м
[Ac As]
+23.8 +21.2 85 +30 +30 очень
душно
1012.1 1001.8 +27.5
12 19.05 В 1 20 км {гроза, морось} 10/10 300 м
[St]
+21.6 +20.8 95 +27 +27 душно 1012.4 1002.0 +20.4 12
15 19.05 В 2 20 км {дождь} 10/10 300 м
[St]
+21.8 +20.8 94 +28 +28 душно 1013.4 1003.0 4
18 19.05 В 1 20 км 10/10 300 м
[St]
+23.2 +21.3 89 +31 +31 очень
душно
1012.1 1001.8
21 19.05 В 1 20 км 5/5 800 м
[Sc]
+24.0 +21.1 84 +30 +30 очень
душно
1011.1 1000.8
00 20.05 В 1 20 км 6/6 800 м
[Sc]
+22.2 +20.6 91 +29 +29 очень
душно
1011.4 1001.0 +24.4
12 20.05 СВ 2 20 км 10/10 150 м
[St]
+21.6 +20.8 95 +27 +27 душно 1011.4 1001.0 +21.4 4
15 20.05 СВ 2 20 км 9/4 210 м
[St Ac As]
+24.0 +22.3 90 +31 +34 очень
душно
1011.4 1001.1
18 20.05 СВ 2 20 км 9/4 360 м
[St Ac As]
+25.2 +21.9 82 +32 +34 очень
душно
1008.7 998.5
21 20.05 СВ 2 20 км 9/3 900 м
[Sc Ac As Cs]
+25.8 +23.0 85 +34 +34 очень
душно
1007.3 997.1

 

Местоположение метеостанции Грал Бругуез (Парагвай): широта -24.76 долгота -58.83 высота над уровнем моря 80 м.

В архиве по умолчанию представлена погода в Грал Бругуез за последнюю неделю. Архивные данные за месяц целиком и за предыдущие месяцы, начиная с января 2011 года, Вы можете получить, выбрав интересующий диапазон дат из раскрывающегося списка и нажав кнопку "Ввод!".


*Определитесь, кто Вы:
робот инопланетянин человек

Внимание! Время в таблицах - всемирное. Для получения местного времени необходимо прибавить поправку, которая равна -4 ч.

Смотрите также архив погоды в соседних городах и на ближайших метеорологических станциях:

Погода в Асунсьоне (Парагвай) (144 км)
Погода в Посо Колорадо (Парагвай) (154 км)
Погода в Формосе (Аргентина) (171 км)
Погода в Лас-Ломитасе (Аргентина) (177 км)
Погода в Сан-Педро (Парагвай) (194 км)
Погода в Парагуари (Парагвай) (197 км)
Погода в Консепсьоне (Парагвай) (216 км)
Погода в Пиларе (Парагвай) (238 км)
Погода в Сан Эстанислао (Парагвай) (243 км)
Погода в Куйкуйо (Парагвай) (247 км)

Пояснения к столбцам:

Ветер - указаны скорость ветра в м/с - средняя за 10 мин, порывы в срок и между сроками (в фигурных скобках) и направление, откуда дует ветер: С - северный, СВ - северо-восточный, В - восточный, ЮВ - юго-восточный, Ю - южный, ЮЗ - юго-западный, З - западный, СЗ - северо-западный.
Видимость - горизонтальная дальность видимости в метрах или километрах. При видимости от 1 до 10 км при отсутствии осадков обычно наблюдается дымка, при ухудшении видимости до 1 км и менее - туман. В сухую погоду видимость может ухудшаться дымом, пылью или мглою.
Явления - указаны атмосферные явления, наблюдавшиеся в срок или в последний час перед сроком; фигурными скобками обозначены явления, наблюдавшиеся между сроками (за 1-3 часа до срока); квадратными скобками обозначены град или гололедные отложения с указанием их диаметра в мм.
Облачность - указаны через наклонную черту общая и нижняя облачность в баллах и высота нижней границы облаков в метрах; квадратными скобками обозначены формы облаков: Ci - перистые, Cs - перисто-слоистые, Cc - перисто-кучевые, Ac - высококучевые, As - высокослоистые, Sc - слоисто-кучевые, Ns - слоисто-дождевые, Cu - кучевые, Cb - кучево-дождевые. Подробнее классификацию облаков см. в Атласе облаков (PDF).
T - Температура воздуха - температура, измеренная на высоте 2 м над землей.
Td - Температура точки росы - температура, при понижении до которой содержащийся в воздухе водяной пар достигнет насыщения.
f - Относительная влажность воздуха - влажноcть воздуха, измеренная на высоте 2 м над землей.
Te - Эффективная температура - температура, которую ощущает одетый по сезону человек в тени. Характеристика душности погоды. При расчете учитывается влияние влажности воздуха и скорости ветра на теплоощущения человека.
Tes - Эффективная температура на солнце - температура, которую ощущает человек, с поправкой на солнечный нагрев. Характеристика знойности погоды. Зависит от высоты солнца над горизонтом, облачности и скорости ветра. Ночью, в пасмурную погоду, а также при ветре 12 м/с и более поправка равна нулю.
P - Атмосферное давление - приведенное к уровню моря атмосферное давление.
Po - Атмосферное давление - измеренное на уровне метеостанции атмосферное давление.
Tmin - Минимальная температура - минимум температуры воздуха на высоте 2 м над землей.
Tmax - Максимальная температура - максимум температуры воздуха на высоте 2 м над землей.
R - Количество осадков - Количество выпавших осадков за период времени, мм. При наведении курсора мыши на число - период времени, за который выпало указанное количество осадков.
R24 - Количество осадков - Количество выпавших осадков за 24 часа, мм.
S - Снежный покров - Высота снежного покрова, см. При наведении курсора мыши на число - состояние снежного покрова и степень покрытия местности в баллах.